Weather History for KAMN - November, 2012

Change the Weather History Date:

Wednesday, November 7, 2012

  Actual Average Record
Temperature  
Mean Temperature 34 °F -  
Max Temperature 43 °F 46 °F 70 °F (1975)
Min Temperature 25 °F 31 °F 16 °F (1991)
Degree Days  
Heating Degree Days 31    
Moisture  
Dew Point 28 °F    
Average Humidity 82    
Maximum Humidity 98    
Minimum Humidity 58    
Precipitation  
Precipitation 0.00 in - - ()
Sea Level Pressure  
Sea Level Pressure 30.09 in    
Wind  
Wind Speed 4 mph (NE)    
Max Wind Speed 10 mph    
Max Gust Speed -    
Visibility 9 miles    
Events      
Averages and records for this station are not official NWS values.
T = Trace of Precipitation, MM = Missing Value Source: NWS Daily Summary

Daily Weather History Graph

Daily Weather History Graph

Search for Another Location

Airport or City:

Trip Planner

Search our weather history database for the weather conditions in past years. The results will help you decide how hot, cold, wet, or windy it might be!

Date:

Astronomy

Nov. 07, 2012 Rise Set
Actual Time 7:22 AM EST 5:22 PM EST
Civil Twilight 6:52 AM EST 5:52 PM EST
Nautical Twilight 6:18 AM EST 6:26 PM EST
Astronomical Twilight 5:44 AM EST 6:59 PM EST
Moon 12:03 AM EST (11/7) 1:41 PM EST (11/7)
Length of Visible Light 11h 00m
Length of Day
9h 59m
Last Quarter, 43% of the Moon is Illuminated
Nov 7
Last Quarter
Nov 13
New
Nov 20
First Quarter
Nov 28
Full
Dec 6
Last Quarter

Hourly Weather History & Observations

Time (EST) Temp. Windchill Dew Point Humidity Pressure Visibility Wind Dir Wind Speed Gust Speed Precip Events Conditions
12:14 AM 31.8 °F 27.3 °F 28.2 °F 87% 29.99 in 10.0 mi East 4.6 mph - N/A   Overcast
12:34 AM 30.2 °F 25.4 °F 27.5 °F 90% 29.99 in 10.0 mi ENE 4.6 mph - N/A   Mostly Cloudy
12:54 AM 28.9 °F 25.2 °F 26.6 °F 91% 29.99 in 10.0 mi East 3.5 mph - N/A   Scattered Clouds
1:14 AM 29.5 °F 25.9 °F 27.1 °F 91% 30.00 in 10.0 mi ENE 3.5 mph - N/A   Scattered Clouds
1:34 AM 28.8 °F 22.6 °F 26.4 °F 91% 30.01 in 7.0 mi East 5.8 mph - N/A   Overcast
1:49 AM 28.4 °F 22.2 °F 26.6 °F 93% 30.01 in 7.0 mi East 5.8 mph - N/A   Overcast
2:09 AM 29.7 °F 24.7 °F 27.5 °F 92% 30.01 in 10.0 mi East 4.6 mph - N/A   Mostly Cloudy
2:29 AM 29.3 °F 24.3 °F 27.1 °F 92% 30.01 in 10.0 mi East 4.6 mph - N/A   Mostly Cloudy
2:49 AM 28.2 °F 22.0 °F 26.4 °F 93% 30.01 in 7.0 mi East 5.8 mph - N/A   Mostly Cloudy
3:10 AM 27.5 °F 21.1 °F 26.1 °F 94% 30.02 in 7.0 mi East 5.8 mph - N/A   Clear
3:50 AM 28.8 °F 25.0 °F 27.3 °F 94% 30.01 in 7.0 mi ENE 3.5 mph - N/A   Clear
4:10 AM 28.4 °F 23.3 °F 26.6 °F 93% 30.02 in 7.0 mi NE 4.6 mph - N/A   Clear
4:30 AM 27.3 °F 23.4 °F 25.7 °F 94% 30.02 in 7.0 mi NE 3.5 mph - N/A   Clear
4:50 AM 26.6 °F - 25.5 °F 96% 30.03 in 7.0 mi Calm Calm - N/A   Scattered Clouds
5:10 AM 27.3 °F 23.4 °F 25.9 °F 94% 30.03 in 7.0 mi NE 3.5 mph - N/A   Clear
5:30 AM 26.6 °F 21.2 °F 25.2 °F 94% 30.04 in 7.0 mi ENE 4.6 mph - N/A   Clear
5:50 AM 27.3 °F - 25.9 °F 94% 30.05 in 10.0 mi Calm Calm - N/A   Clear
6:11 AM 28.4 °F 24.6 °F 26.4 °F 92% 30.05 in 10.0 mi NE 3.5 mph - N/A   Clear
6:31 AM 28.4 °F 24.6 °F 25.7 °F 90% 30.05 in 10.0 mi NE 3.5 mph - N/A   Scattered Clouds
7:11 AM 26.1 °F - 24.4 °F 94% 30.06 in 7.0 mi Calm Calm - N/A   Clear
7:31 AM 25.5 °F - 24.3 °F 95% 30.06 in 5.0 mi Calm Calm - N/A   Clear
7:51 AM 25.5 °F - 24.3 °F 95% 30.07 in 7.0 mi Calm Calm - N/A   Clear
8:11 AM 26.4 °F - 25.2 °F 95% 30.07 in 7.0 mi Calm Calm - N/A   Clear
8:31 AM 29.1 °F - 27.9 °F 95% 30.08 in 7.0 mi Calm Calm - N/A   Clear
8:52 AM 31.8 °F 28.5 °F 28.4 °F 87% 30.08 in 7.0 mi NNE 3.5 mph - N/A   Clear
9:12 AM 33.1 °F 27.7 °F 29.3 °F 86% 30.09 in 7.0 mi North 5.8 mph - N/A   Clear
9:32 AM 34.7 °F 30.6 °F 30.0 °F 83% 30.08 in 7.0 mi NNE 4.6 mph - N/A   Clear
9:52 AM 36.0 °F 29.6 °F 29.8 °F 78% 30.09 in 10.0 mi NE 8.1 mph - N/A   Clear
10:12 AM 37.0 °F 31.6 °F 29.5 °F 74% 30.09 in 10.0 mi NE 6.9 mph - N/A   Clear
10:32 AM 37.9 °F 33.5 °F 29.1 °F 71% 30.10 in 10.0 mi ENE 5.8 mph - N/A   Clear
10:52 AM 38.3 °F 33.2 °F 28.9 °F 69% 30.10 in 10.0 mi NE 6.9 mph - N/A   Clear
11:12 AM 39.4 °F 33.8 °F 29.5 °F 68% 30.11 in 10.0 mi NE 8.1 mph - N/A   Clear
11:33 AM 40.1 °F 34.7 °F 29.8 °F 67% 30.11 in 10.0 mi NNE 8.1 mph - N/A   Scattered Clouds
11:53 AM 41.4 °F 35.2 °F 30.0 °F 64% 30.11 in 10.0 mi ENE 10.4 mph - N/A   Scattered Clouds
12:13 PM 41.0 °F 36.4 °F 29.8 °F 64% 30.11 in 10.0 mi ENE 6.9 mph - N/A   Mostly Cloudy
12:33 PM 42.4 °F 37.5 °F 30.6 °F 63% 30.10 in 10.0 mi ENE 8.1 mph - N/A   Mostly Cloudy
12:53 PM 41.9 °F 38.2 °F 30.9 °F 65% 30.10 in 10.0 mi ENE 5.8 mph - N/A   Overcast
1:13 PM 41.9 °F 37.5 °F 30.6 °F 64% 30.10 in 10.0 mi NNE 6.9 mph - N/A   Overcast
1:33 PM 42.8 °F 38.6 °F 30.4 °F 62% 30.09 in 10.0 mi NE 6.9 mph - N/A   Mostly Cloudy
1:53 PM 43.7 °F 39.7 °F 30.2 °F 59% 30.08 in 10.0 mi NE 6.9 mph - N/A   Scattered Clouds
2:14 PM 43.7 °F 40.3 °F 30.2 °F 59% 30.08 in 10.0 mi NE 5.8 mph - N/A   Clear
2:34 PM 43.0 °F 41.3 °F 30.0 °F 60% 30.07 in 10.0 mi NE 3.5 mph - N/A   Scattered Clouds
2:54 PM 43.7 °F 39.7 °F 29.8 °F 58% 30.07 in 10.0 mi NNE 6.9 mph - N/A   Mostly Cloudy
3:14 PM 43.3 °F 39.9 °F 30.6 °F 61% 30.07 in 10.0 mi ENE 5.8 mph - N/A   Mostly Cloudy
3:34 PM 43.9 °F 39.9 °F 30.6 °F 59% 30.08 in 10.0 mi NE 6.9 mph - N/A   Mostly Cloudy
3:54 PM 41.5 °F 38.6 °F 30.2 °F 64% 30.09 in 10.0 mi NNE 4.6 mph - N/A   Scattered Clouds
4:14 PM 41.7 °F 39.8 °F 30.0 °F 63% 30.09 in 10.0 mi North 3.5 mph - N/A   Clear
4:34 PM 43.2 °F 41.5 °F 30.0 °F 60% 30.10 in 10.0 mi NNE 3.5 mph - N/A   Mostly Cloudy
4:49 PM 42.4 °F 39.6 °F 30.7 °F 63% 30.11 in 10.0 mi NNE 4.6 mph - N/A   Overcast
5:10 PM 41.4 °F 37.6 °F 31.1 °F 67% 30.11 in 10.0 mi NE 5.8 mph - N/A   Overcast
5:30 PM 40.1 °F 38.0 °F 31.1 °F 70% 30.11 in 10.0 mi NNE 3.5 mph - N/A   Mostly Cloudy
5:50 PM 38.1 °F 34.6 °F 30.9 °F 75% 30.11 in 10.0 mi NE 4.6 mph - N/A   Scattered Clouds
6:10 PM 36.5 °F 32.7 °F 30.7 °F 80% 30.12 in 10.0 mi NNE 4.6 mph - N/A   Clear
6:30 PM 36.1 °F 32.3 °F 30.0 °F 78% 30.12 in 10.0 mi NNE 4.6 mph - N/A   Clear
6:50 PM 33.3 °F 30.2 °F 29.3 °F 85% 30.12 in 10.0 mi NNE 3.5 mph - N/A   Clear
7:10 PM 33.8 °F 30.8 °F 29.8 °F 85% 30.13 in 10.0 mi East 3.5 mph - N/A   Clear
7:31 PM 33.1 °F - 29.5 °F 87% 30.14 in 10.0 mi Calm Calm - N/A   Clear
7:51 PM 32.0 °F - 29.1 °F 89% 30.14 in 10.0 mi Calm Calm - N/A   Clear
8:11 PM 32.4 °F - 29.1 °F 88% 30.14 in 10.0 mi Calm Calm - N/A   Clear
8:31 PM 32.0 °F - 29.3 °F 90% 30.15 in 10.0 mi Calm Calm - N/A   Clear
8:51 PM 28.9 °F - 26.8 °F 92% 30.15 in 7.0 mi Calm Calm - N/A   Clear
9:11 PM 29.3 °F - 27.3 °F 92% 30.16 in 7.0 mi Calm Calm - N/A   Clear
9:31 PM 27.5 °F - 25.3 °F 92% 30.16 in 7.0 mi Calm Calm - N/A   Clear
9:51 PM 27.5 °F - 26.4 °F 96% 30.16 in 7.0 mi Calm Calm - N/A   Clear
10:11 PM 28.0 °F - 26.4 °F 94% 30.17 in 7.0 mi Calm Calm - N/A   Clear
10:31 PM 27.5 °F - 26.6 °F 96% 30.17 in 5.0 mi Calm Calm - N/A   Clear
10:52 PM 27.0 °F - 26.1 °F 96% 30.17 in 5.0 mi Calm Calm - N/A   Clear
11:12 PM 25.9 °F - 25.2 °F 97% 30.16 in 5.0 mi Calm Calm - N/A   Clear
11:32 PM 25.3 °F - 24.3 °F 96% 30.16 in 3.0 mi Calm Calm - N/A   Clear
11:51 PM 25.5 °F - 25.0 °F 98% 30.16 in 4.0 mi Calm Calm - N/A   Clear